When you browse on this site, cookies collect data to enhance your experience and personalize the content and advertising you see.
Visit our Privacy Policy to learn more. By continuing to use the site, you agree to this use of cookies and data.
  • In Slovakia
  • List of Countries
  • For 7 days
  • Water Temperature
  • Weather Map
  • Weather Widgets
  • user-avatar
    Login

    Hourly Weather San Juan

    Today, 19 November, Tuesday

    Time Temperature Precipitation Wind Pressure Humidity
    00:00 +26°C° 0 mm 3 mps 706 mmHg 39%
    01:00 +25°C° 0 mm 3 mps 706 mmHg 41%
    02:00 +25°C° 0 mm 3 mps 706 mmHg 44%
    03:00 +25°C° 0 mm 3 mps 706 mmHg 46%
    04:00 +24°C° 0 mm 3 mps 706 mmHg 49%
    05:00 +25°C° 0 mm 3 mps 706 mmHg 47%
    06:00 +26°C° 0 mm 2 mps 706 mmHg 45%
    07:00 +27°C° 0 mm 2 mps 707 mmHg 42%
    08:00 +29°C° 0 mm 2 mps 706 mmHg 40%
    09:00 +30°C° 0 mm 2 mps 706 mmHg 37%
    10:00 +31°C° 0 mm 2 mps 706 mmHg 34%
    11:00 +34°C° 0 mm 3 mps 705 mmHg 31%
    12:00 +36°C° 0 mm 4 mps 704 mmHg 28%
    13:00 +37°C° 0 mm 5 mps 703 mmHg 25%
    14:00 +37°C° 0 mm 4 mps 703 mmHg 25%
    15:00 +38°C° 0 mm 4 mps 702 mmHg 24%
    16:00 +38°C° 0 mm 4 mps 702 mmHg 23%
    17:00 +37°C° 0 mm 4 mps 702 mmHg 25%
    18:00 +36°C° 0 mm 4 mps 703 mmHg 27%
    19:00 +35°C° 0 mm 4 mps 703 mmHg 30%
    20:00 +34°C° 0 mm 4 mps 703 mmHg 31%
    21:00 +34°C° 0 mm 4 mps 704 mmHg 33%
    22:00 +33°C° 0 mm 4 mps 704 mmHg 34%
    23:00 +33°C° 0 mm 4 mps 704 mmHg 36%

    Tomorrow, 20 November, Wednesday

    Time Temperature Precipitation Wind Pressure Humidity
    00:00 +32°C° 0 mm 4 mps 703 mmHg 38%
    01:00 +30°C° 0 mm 4 mps 703 mmHg 40%
    02:00 +29°C° 0 mm 3 mps 703 mmHg 42%
    03:00 +28°C° 0 mm 2 mps 703 mmHg 45%
    04:00 +28°C° 0 mm 1 mps 703 mmHg 47%
    05:00 +29°C° 0.2 mm 3 mps 704 mmHg 43%
    06:00 +30°C° 0.2 mm 5 mps 704 mmHg 40%
    07:00 +33°C° 0.2 mm 7 mps 705 mmHg 36%
    08:00 +33°C° 0.6 mm 8 mps 705 mmHg 33%
    09:00 +34°C° 0.6 mm 9 mps 705 mmHg 29%
    10:00 +34°C° 0.6 mm 10 mps 705 mmHg 26%
    11:00 +35°C° 0 mm 9 mps 704 mmHg 25%
    12:00 +37°C° 0 mm 8 mps 704 mmHg 24%
    13:00 +38°C° 0 mm 7 mps 703 mmHg 23%
    14:00 +38°C° 0.1 mm 6 mps 703 mmHg 24%
    15:00 +36°C° 0.1 mm 5 mps 703 mmHg 25%
    16:00 +36°C° 0.1 mm 4 mps 702 mmHg 25%
    17:00 +35°C° 0 mm 4 mps 702 mmHg 27%
    18:00 +34°C° 0 mm 3 mps 703 mmHg 29%
    19:00 +31°C° 0 mm 2 mps 703 mmHg 31%
    20:00 +31°C° 0 mm 2 mps 703 mmHg 31%
    21:00 +30°C° 0 mm 1 mps 703 mmHg 32%
    22:00 +30°C° 0 mm 1 mps 704 mmHg 33%
    23:00 +30°C° 0 mm 2 mps 703 mmHg 35%

    Day after tomorrow, 21 November, Thursday

    Time Temperature Precipitation Wind Pressure Humidity
    00:00 +29°C° 0 mm 3 mps 703 mmHg 38%
    01:00 +29°C° 0 mm 4 mps 703 mmHg 41%
    02:00 +28°C° 0 mm 3 mps 703 mmHg 43%
    03:00 +27°C° 0 mm 3 mps 703 mmHg 46%
    04:00 +27°C° 0 mm 2 mps 703 mmHg 48%
    05:00 +28°C° 0 mm 3 mps 703 mmHg 46%
    06:00 +30°C° 0 mm 4 mps 704 mmHg 44%
    07:00 +32°C° 0 mm 5 mps 704 mmHg 43%
    08:00 +33°C° 0 mm 6 mps 704 mmHg 38%
    09:00 +35°C° 0 mm 6 mps 704 mmHg 34%
    10:00 +36°C° 0 mm 6 mps 704 mmHg 30%
    11:00 +38°C° 0 mm 6 mps 704 mmHg 27%
    12:00 +39°C° 0 mm 6 mps 703 mmHg 24%
    13:00 +40°C° 0 mm 6 mps 703 mmHg 22%
    14:00 +40°C° 0 mm 6 mps 703 mmHg 21%
    15:00 +40°C° 0 mm 6 mps 703 mmHg 21%
    16:00 +40°C° 0 mm 5 mps 702 mmHg 21%
    17:00 +36°C° 0 mm 6 mps 703 mmHg 26%
    18:00 +34°C° 0 mm 6 mps 703 mmHg 31%
    19:00 +32°C° 0 mm 7 mps 703 mmHg 36%
    20:00 +31°C° 0.1 mm 8 mps 704 mmHg 43%
    21:00 +29°C° 0.1 mm 9 mps 705 mmHg 49%
    22:00 +28°C° 0.1 mm 10 mps 705 mmHg 56%
    23:00 +27°C° 0.2 mm 9 mps 705 mmHg 58%

    22 November, Friday

    Time Temperature Precipitation Wind Pressure Humidity
    00:00 +26°C° 0.2 mm 9 mps 705 mmHg 59%
    01:00 +24°C° 0.2 mm 8 mps 705 mmHg 61%
    02:00 +24°C° 0 mm 7 mps 705 mmHg 54%
    03:00 +24°C° 0 mm 7 mps 705 mmHg 47%
    04:00 +23°C° 0 mm 6 mps 706 mmHg 40%
    05:00 +23°C° 0 mm 6 mps 706 mmHg 37%
    06:00 +23°C° 0 mm 6 mps 706 mmHg 34%
    07:00 +23°C° 0 mm 7 mps 706 mmHg 31%
    08:00 +24°C° 0 mm 6 mps 706 mmHg 31%
    09:00 +26°C° 0 mm 5 mps 706 mmHg 30%
    10:00 +27°C° 0 mm 5 mps 706 mmHg 29%
    11:00 +28°C° 0 mm 5 mps 706 mmHg 30%
    12:00 +29°C° 0 mm 5 mps 705 mmHg 30%
    13:00 +32°C° 0 mm 4 mps 705 mmHg 31%
    14:00 +32°C° 0 mm 5 mps 704 mmHg 33%
    15:00 +32°C° 0 mm 5 mps 704 mmHg 34%
    16:00 +32°C° 0 mm 5 mps 703 mmHg 35%
    17:00 +30°C° 0 mm 4 mps 704 mmHg 38%
    18:00 +29°C° 0 mm 4 mps 704 mmHg 41%
    19:00 +28°C° 0 mm 3 mps 704 mmHg 44%
    20:00 +28°C° 0 mm 3 mps 705 mmHg 45%
    21:00 +27°C° 0 mm 2 mps 705 mmHg 46%
    22:00 +27°C° 0 mm 2 mps 705 mmHg 47%
    23:00 +27°C° 0 mm 2 mps 705 mmHg 47%

    23 November, Saturday

    Time Temperature Precipitation Wind Pressure Humidity
    00:00 +27°C° 0 mm 1 mps 704 mmHg 47%
    01:00 +27°C° 0 mm 1 mps 704 mmHg 48%
    02:00 +26°C° 0 mm 1 mps 704 mmHg 51%
    03:00 +26°C° 0 mm 1 mps 703 mmHg 55%
    04:00 +25°C° 0 mm 1 mps 703 mmHg 59%
    05:00 +26°C° 0 mm 2 mps 703 mmHg 57%
    06:00 +27°C° 0 mm 2 mps 703 mmHg 56%
    07:00 +28°C° 0 mm 3 mps 703 mmHg 54%
    08:00 +30°C° 0 mm 4 mps 703 mmHg 49%
    09:00 +33°C° 0 mm 5 mps 702 mmHg 45%
    10:00 +34°C° 0 mm 6 mps 702 mmHg 40%
    11:00 +35°C° 0 mm 7 mps 701 mmHg 37%
    12:00 +38°C° 0 mm 7 mps 701 mmHg 34%
    13:00 +39°C° 0 mm 7 mps 700 mmHg 31%
    14:00 +38°C° 0 mm 7 mps 699 mmHg 32%
    15:00 +38°C° 0 mm 6 mps 699 mmHg 32%
    16:00 +38°C° 0 mm 6 mps 698 mmHg 33%
    17:00 +36°C° 0 mm 6 mps 699 mmHg 38%
    18:00 +34°C° 0 mm 6 mps 699 mmHg 42%
    19:00 +33°C° 0 mm 7 mps 700 mmHg 46%
    20:00 +32°C° 0 mm 6 mps 700 mmHg 48%
    21:00 +32°C° 0 mm 6 mps 700 mmHg 50%
    22:00 +30°C° 0 mm 5 mps 700 mmHg 52%
    23:00 +30°C° 0 mm 5 mps 699 mmHg 54%

    24 November, Sunday

    Time Temperature Precipitation Wind Pressure Humidity
    00:00 +29°C° 0 mm 6 mps 699 mmHg 55%
    01:00 +29°C° 0 mm 6 mps 698 mmHg 57%
    02:00 +28°C° 0 mm 5 mps 698 mmHg 59%
    03:00 +28°C° 0 mm 4 mps 698 mmHg 61%
    04:00 +27°C° 0 mm 4 mps 698 mmHg 63%
    05:00 +28°C° 0 mm 3 mps 698 mmHg 58%
    06:00 +30°C° 0 mm 3 mps 698 mmHg 54%
    07:00 +31°C° 0 mm 3 mps 698 mmHg 50%
    08:00 +32°C° 0 mm 6 mps 699 mmHg 48%
    09:00 +33°C° 0 mm 9 mps 699 mmHg 46%
    10:00 +33°C° 0 mm 12 mps 699 mmHg 45%
    11:00 +34°C° 0 mm 12 mps 699 mmHg 41%
    12:00 +34°C° 0 mm 12 mps 698 mmHg 36%
    13:00 +34°C° 0 mm 12 mps 698 mmHg 32%
    14:00 +33°C° 0.1 mm 12 mps 698 mmHg 35%
    15:00 +33°C° 0.1 mm 12 mps 698 mmHg 37%
    16:00 +32°C° 0.1 mm 12 mps 698 mmHg 40%
    17:00 +31°C° 0 mm 12 mps 699 mmHg 40%
    18:00 +29°C° 0 mm 11 mps 700 mmHg 41%
    19:00 +28°C° 0 mm 10 mps 701 mmHg 41%
    20:00 +26°C° 0 mm 10 mps 701 mmHg 46%
    21:00 +24°C° 0 mm 10 mps 702 mmHg 50%
    22:00 +23°C° 0 mm 10 mps 702 mmHg 55%
    23:00 +22°C° 0 mm 10 mps 702 mmHg 53%
    Show more